Location: *
(34.6780°N, 135.8310°E)
Time: 14:10:09
(UTC+00:00)

Milstar 3 Cent rocket - Pass Details

Date: 18 October 2019
Orbit: 706 x 5147 km, 28.3° (Epoch: 12 November)

Event Time Altitude Azimuth Distance (km) Brightness Sun altitude
Exits shadow 19:28:37 17° 213° (SSW) 2,165 4.0 -20.5°
Maximum altitude 19:31:47 27° 168° (SSE) 1,479 3.5 -19.9°
Drops below altitude 10° 19:35:47 10° 109° (ESE) 2,176 5.4 -19.1°
Sets 19:38:16 0° 96° (E) 3,092 6.8 -18.5°
